| time (UTC) | temp C | wind direction | speed KPH | gust KPH | rain 1hr cm | rain 24hr cm | rain mn cm | humidity % | barometer mb |
| 20260503002031 | 10 | 300 | 0.0 | 0.0 | 0.00 | 0.23 | 0.23 | 12 | 1010.0 |
| 20260503001925 | 10 | 300 | 0.0 | 0.0 | 0.00 | 0.23 | 0.23 | 12 | 1010.1 |
| 20260503000032 | 10 | 300 | 0.0 | 0.0 | 0.00 | 0.23 | 0.23 | 13 | 1010.1 |
| 20260502234031 | 10 | 300 | 0.0 | 0.0 | 0.00 | 0.23 | 0.23 | 14 | 1010.1 |
| 20260502232031 | 10 | 300 | 0.0 | 0.0 | 0.00 | 0.23 | 0.23 | 15 | 1010.0 |
| 20260502231925 | 10 | 300 | 0.0 | 0.0 | 0.00 | 0.23 | 0.23 | 16 | 1010.0 |
| 20260502230031 | 10 | 300 | 0.0 | 0.0 | 0.03 | 0.23 | 0.23 | 15 | 1009.9 |
| 20260502224031 | 10 | 301 | 0.0 | 0.0 | 0.03 | 0.23 | 0.23 | 17 | 1009.9 |
| 20260502222031 | 10 | 301 | 0.0 | 0.0 | 0.03 | 0.23 | 0.23 | 16 | 1009.9 |
| 20260502221925 | 10 | 301 | 0.0 | 0.0 | 0.03 | 0.23 | 0.23 | 16 | 1010.0 |
| 20260502220032 | 10 | 301 | 0.0 | 0.0 | 0.10 | 0.20 | 0.20 | 14 | 1009.7 |
| 20260502214031 | 10 | 301 | 0.0 | 0.0 | 0.10 | 0.20 | 0.20 | 14 | 1009.8 |
| 20260502212031 | 10 | 301 | 0.0 | 0.0 | 0.10 | 0.20 | 0.20 | 16 | 1009.9 |
| 20260502211925 | 10 | 301 | 0.0 | 0.0 | 0.10 | 0.20 | 0.20 | 17 | 1009.9 |
| 20260502210031 | 10 | 301 | 0.0 | 16.1 | 0.00 | 0.10 | 0.10 | 23 | 1009.9 |
| 20260502204031 | 10 | 301 | 0.0 | 16.1 | 0.00 | 0.10 | 0.10 | 32 | 1010.0 |
| 20260502202032 | 11 | 301 | 0.0 | 16.1 | 0.00 | 0.10 | 0.10 | 50 | 1010.0 |
| 20260502201925 | 11 | 301 | 0.0 | 16.1 | 0.00 | 0.10 | 0.10 | 50 | 1010.1 |
| 20260502200031 | 12 | 223 | 0.0 | 12.9 | 0.00 | 0.10 | 0.10 | 64 | 1009.6 |
| 20260502194031 | 12 | 188 | 0.0 | 12.9 | 0.00 | 0.10 | 0.10 | 65 | 1009.8 |
| 20260502192033 | 13 | 186 | 0.0 | 12.9 | 0.00 | 0.10 | 0.10 | 64 | 1010.0 |
| 20260502191925 | 13 | 190 | 1.6 | 12.9 | 0.00 | 0.10 | 0.10 | 64 | 1010.1 |
| 20260502190033 | 12 | 182 | 0.0 | 14.5 | 0.03 | 0.10 | 0.10 | 63 | 1010.5 |
| 20260502184031 | 12 | 206 | 0.0 | 14.5 | 0.03 | 0.10 | 0.10 | 62 | 1010.5 |
| 20260502182031 | 12 | 184 | 11.3 | 14.5 | 0.03 | 0.10 | 0.10 | 52 | 1010.6 |
| 20260502181925 | 12 | 187 | 0.0 | 14.5 | 0.03 | 0.10 | 0.10 | 52 | 1010.6 |
| 20260502164032 | 11 | 214 | 0.0 | 8.0 | 0.00 | 0.00 | 0.00 | 43 | 1011.0 |
| 20260502162031 | 11 | 192 | 0.0 | 8.0 | 0.00 | 0.00 | 0.00 | 47 | 1011.3 |
| 20260502161926 | 11 | 191 | 0.0 | 8.0 | 0.00 | 0.00 | 0.00 | 49 | 1011.2 |
| 20260502160105 | 11 | 192 | 0.0 | 0.0 | 0.00 | 0.00 | 0.00 | 53 | 1011.2 |
| 20260502152034 | 11 | 190 | 0.0 | 0.0 | 0.00 | 0.00 | 0.00 | 64 | 1011.4 |
| 20260502151925 | 11 | 190 | 0.0 | 0.0 | 0.00 | 0.00 | 0.00 | 64 | 1011.3 |
| 20260502122032 | 9 | 186 | 0.0 | 0.0 | 0.00 | 0.00 | 0.00 | 49 | 1012.1 |
| 20260502121925 | 9 | 186 | 0.0 | 0.0 | 0.00 | 0.00 | 0.00 | 49 | 1012.1 |
| 20260502120110 | 9 | 186 | 0.0 | 0.0 | 0.00 | 0.00 | 0.00 | 51 | 1012.6 |
| 20260502112031 | 9 | 185 | 0.0 | 0.0 | 0.00 | 0.00 | 0.00 | 48 | 1011.9 |
| 20260502111925 | 9 | 185 | 0.0 | 0.0 | 0.00 | 0.00 | 0.00 | 47 | 1011.9 |
| 20260502110031 | 8 | 184 | 0.0 | 0.0 | 0.00 | 0.00 | 0.00 | 50 | 1011.8 |
| 20260502104031 | 8 | 184 | 0.0 | 0.0 | 0.00 | 0.00 | 0.00 | 52 | 1011.6 |
| 20260502102031 | 8 | 184 | 0.0 | 0.0 | 0.00 | 0.00 | 0.00 | 52 | 1011.5 |
| 20260502101925 | 8 | 184 | 0.0 | 0.0 | 0.00 | 0.00 | 0.00 | 52 | 1011.6 |
| 20260502070031 | 9 | 184 | 0.0 | 0.0 | 0.00 | 0.00 | 0.00 | 65 | 1011.3 |
| 20260502064031 | 9 | 184 | 0.0 | 0.0 | 0.00 | 0.00 | 0.00 | 65 | 1011.3 |
| 20260502062031 | 9 | 184 | 0.0 | 0.0 | 0.00 | 0.00 | 0.00 | 66 | 1011.5 |
| 20260502061925 | 9 | 184 | 0.0 | 0.0 | 0.00 | 0.00 | 0.00 | 66 | 1011.5 |
| 20260502060031 | 10 | 184 | 0.0 | 0.0 | 0.00 | 0.00 | 0.00 | 66 | 1011.5 |
| 20260502054031 | 10 | 191 | 0.0 | 0.0 | 0.00 | 0.00 | 0.00 | 67 | 1011.8 |
| 20260502052031 | 10 | 176 | 0.0 | 0.0 | 0.00 | 0.00 | 0.00 | 67 | 1011.7 |
| 20260502051925 | 10 | 175 | 0.0 | 0.0 | 0.00 | 0.00 | 0.00 | 67 | 1011.7 |
| 20260502050031 | 10 | 190 | 0.0 | 0.0 | 0.00 | 0.00 | 0.00 | 67 | 1011.9 |
| 20260502044031 | 10 | 186 | 0.0 | 0.0 | 0.00 | 0.00 | 0.00 | 67 | 1011.8 |
| 20260502042031 | 10 | 186 | 0.0 | 0.0 | 0.00 | 0.00 | 0.00 | 67 | 1011.8 |
| 20260502041925 | 10 | 186 | 0.0 | 0.0 | 0.00 | 0.00 | 0.00 | 67 | 1011.8 |
| 20260502040031 | 10 | 186 | 0.0 | 0.0 | 0.00 | 0.00 | 0.00 | 67 | 1011.9 |
| 20260502034031 | 10 | 186 | 0.0 | 0.0 | 0.00 | 0.00 | 0.00 | 67 | 1011.9 |
| 20260502032031 | 10 | 184 | 0.0 | 0.0 | 0.00 | 0.00 | 0.00 | 66 | 1012.0 |
| 20260502031925 | 10 | 184 | 0.0 | 0.0 | 0.00 | 0.00 | 0.00 | 66 | 1012.0 |
| 20260502030032 | 10 | 182 | 0.0 | 0.0 | 0.00 | 0.00 | 0.00 | 65 | 1012.0 |
| 20260502024031 | 11 | 182 | 0.0 | 0.0 | 0.00 | 0.00 | 0.00 | 63 | 1011.6 |
| 20260502022031 | 11 | 218 | 0.0 | 0.0 | 0.00 | 0.00 | 0.00 | 61 | 1011.7 |
| 20260502021925 | 11 | 219 | 0.0 | 0.0 | 0.00 | 0.00 | 0.00 | 61 | 1011.8 |
| 20260502020031 | 11 | 246 | 0.0 | 0.0 | 0.00 | 0.00 | 0.00 | 60 | 1011.8 |
| 20260502014031 | 11 | 248 | 0.0 | 0.0 | 0.00 | 0.00 | 0.00 | 58 | 1011.6 |
| 20260502012031 | 11 | 255 | 0.0 | 0.0 | 0.00 | 0.00 | 0.00 | 59 | 1011.4 |
| 20260502011925 | 10 | 257 | 0.0 | 0.0 | 0.00 | 0.00 | 0.00 | 59 | 1011.4 |
| 20260502010030 | 11 | 257 | 0.0 | 0.0 | 0.00 | 0.00 | 0.00 | 58 | 1011.2 |